CSN7520 ZWWW-ZLDH

Flight info

Callsign CSN7520
Flight time 0h 58m
Altitude 35100
Route KEX09D KEXAB W192 ESDEX W191 MOVBI MOV09A
Aircraft A21N/M-SDE2E3FGHIRWXY/LB1

Departure

Time 2026-05-04 07:57
Airport Ürümqi Tianshan International Airport (ZWWW)

Arrival

Time 2026-05-04 08:55
Airport Dunhuang Mogao International Airport (ZLDH)
Time Latitude Longitude Altitude Speed Heading
2026-05-04 07:22 43.91859 87.46857 2141 ft 0 kts 162°
2026-05-04 07:47 43.91876 87.46850 2141 ft 4 kts 167°
2026-05-04 07:47 43.91903 87.46845 2141 ft 4 kts 179°
2026-05-04 07:49 43.91955 87.46878 2140 ft 0 kts 253°
2026-05-04 07:50 43.91953 87.46870 2140 ft 3 kts 252°
2026-05-04 07:50 43.91945 87.46828 2141 ft 6 kts 253°
2026-05-04 07:50 43.91929 87.46753 2139 ft 10 kts 253°
2026-05-04 07:51 43.91906 87.46646 2141 ft 13 kts 253°
2026-05-04 07:51 43.91879 87.46517 2141 ft 15 kts 253°
2026-05-04 07:51 43.91848 87.46373 2141 ft 11 kts 253°
2026-05-04 07:51 43.91825 87.46261 2141 ft 13 kts 253°
2026-05-04 07:52 43.91797 87.46130 2141 ft 15 kts 253°
2026-05-04 07:52 43.91765 87.45980 2141 ft 17 kts 253°
2026-05-04 07:52 43.91730 87.45814 2141 ft 19 kts 253°
2026-05-04 07:52 43.91695 87.45646 2141 ft 15 kts 253°
2026-05-04 07:53 43.91663 87.45500 2141 ft 17 kts 252°
2026-05-04 07:54 43.91840 87.45292 2140 ft 0 kts 343°
2026-05-04 07:55 43.91848 87.45288 2141 ft 3 kts 343°
2026-05-04 07:55 43.91874 87.45277 2141 ft 5 kts 343°
2026-05-04 07:55 43.91920 87.45258 2141 ft 8 kts 343°
2026-05-04 07:56 43.91971 87.45297 2140 ft 10 kts 64°
2026-05-04 07:56 43.91980 87.45339 2140 ft 0 kts 72°
2026-05-04 07:56 43.91984 87.45357 2140 ft 17 kts 72°
2026-05-04 07:57 43.92126 87.46010 2142 ft 123 kts 72°
2026-05-04 07:57 43.92461 87.47507 2489 ft 182 kts 71°
2026-05-04 07:57 43.92813 87.49196 3909 ft 193 kts 72°
2026-05-04 07:57 43.93049 87.51307 4618 ft 250 kts 92°
2026-05-04 07:58 43.92615 87.53753 5182 ft 271 kts 105°
2026-05-04 07:58 43.92052 87.56300 5977 ft 281 kts 104°
2026-05-04 07:58 43.91497 87.58925 6839 ft 286 kts 104°
2026-05-04 07:58 43.90958 87.61583 7734 ft 288 kts 103°
2026-05-04 07:59 43.90426 87.64278 8623 ft 291 kts 103°
2026-05-04 07:59 43.89897 87.67014 9459 ft 296 kts 102°
2026-05-04 07:59 43.89364 87.69799 10217 ft 304 kts 103°
2026-05-04 07:59 43.88813 87.72682 10584 ft 324 kts 102°
2026-05-04 08:00 43.88223 87.75802 10892 ft 345 kts 103°
2026-05-04 08:00 43.87596 87.79114 11173 ft 365 kts 103°
2026-05-04 08:00 43.86931 87.82605 11460 ft 385 kts 104°
2026-05-04 08:02 43.81673 88.09908 14963 ft 438 kts 105°
2026-05-04 08:02 43.80881 88.13986 15762 ft 439 kts 105°
2026-05-04 08:02 43.80086 88.18084 16443 ft 442 kts 105°
2026-05-04 08:03 43.79282 88.22213 17011 ft 446 kts 105°
2026-05-04 08:03 43.78466 88.26375 17599 ft 451 kts 105°
2026-05-04 08:03 43.77636 88.30585 18155 ft 455 kts 105°
2026-05-04 08:03 43.76798 88.34825 18658 ft 459 kts 105°
2026-05-04 08:04 43.75959 88.39117 19125 ft 464 kts 105°
2026-05-04 08:04 43.75112 88.43439 19628 ft 467 kts 105°
2026-05-04 08:04 43.74257 88.47798 20125 ft 471 kts 105°
2026-05-04 08:04 43.73398 88.52169 20544 ft 474 kts 106°
2026-05-04 08:05 43.72522 88.56589 21029 ft 478 kts 106°
2026-05-04 08:05 43.71636 88.61039 21567 ft 482 kts 106°
2026-05-04 08:05 43.70742 88.65521 22090 ft 486 kts 106°
2026-05-04 08:05 43.69853 88.69995 22577 ft 490 kts 106°
2026-05-04 08:06 43.68942 88.74539 23040 ft 494 kts 106°
2026-05-04 08:06 43.68018 88.79133 23501 ft 497 kts 106°
2026-05-04 08:06 43.67091 88.83755 23872 ft 500 kts 106°
2026-05-04 08:06 43.66160 88.88392 24210 ft 503 kts 106°
2026-05-04 08:08 43.59458 89.21373 26844 ft 512 kts 108°
2026-05-04 08:08 43.58491 89.26096 27271 ft 511 kts 108°
2026-05-04 08:10 43.46317 89.60969 30318 ft 507 kts 125°
2026-05-04 08:11 43.44499 89.65115 30629 ft 506 kts 125°
2026-05-04 08:11 43.40865 89.73408 31194 ft 506 kts 125°
2026-05-04 08:11 43.39035 89.77569 31473 ft 506 kts 126°
2026-05-04 08:12 43.37205 89.81719 31795 ft 506 kts 126°
2026-05-04 08:12 43.35399 89.85804 32110 ft 506 kts 126°
2026-05-04 08:12 43.33579 89.89932 32321 ft 505 kts 126°
2026-05-04 08:12 43.31760 89.94052 32542 ft 504 kts 126°
2026-05-04 08:13 43.29939 89.98167 32828 ft 505 kts 126°
2026-05-04 08:13 43.28109 90.02286 33049 ft 506 kts 127°
2026-05-04 08:13 43.26274 90.06421 33251 ft 507 kts 127°
2026-05-04 08:13 43.24438 90.10541 33550 ft 506 kts 127°
2026-05-04 08:14 43.22605 90.14661 33847 ft 505 kts 127°
2026-05-04 08:14 43.20770 90.18769 34035 ft 506 kts 127°
2026-05-04 08:14 43.19542 90.21504 34158 ft 507 kts 127°
2026-05-04 08:16 43.06547 90.50439 34795 ft 517 kts 127°
2026-05-04 08:16 43.02769 90.58811 34781 ft 517 kts 127°
2026-05-04 08:17 42.99006 90.67123 34746 ft 517 kts 127°
2026-05-04 08:17 42.95210 90.75478 34756 ft 517 kts 127°
2026-05-04 08:19 42.79510 91.01664 34707 ft 508 kts 143°
2026-05-04 08:19 42.76950 91.04981 34711 ft 509 kts 142°
2026-05-04 08:20 42.71837 91.11646 34713 ft 509 kts 142°
2026-05-04 08:20 42.66722 91.18310 34715 ft 511 kts 142°
2026-05-04 08:21 42.61581 91.25005 34716 ft 512 kts 142°
2026-05-04 08:21 42.56428 91.31690 34720 ft 513 kts 142°
2026-05-04 08:22 42.51251 91.38374 34731 ft 514 kts 142°
2026-05-04 08:24 42.30514 91.65015 34737 ft 515 kts 142°
2026-05-04 08:24 42.25190 91.71429 34738 ft 508 kts 151°
2026-05-04 08:25 42.18979 91.75370 34740 ft 483 kts 175°
2026-05-04 08:25 42.12431 91.76582 34744 ft 476 kts 181°
2026-05-04 08:27 41.86200 91.81128 34753 ft 475 kts 179°
2026-05-04 08:28 41.79648 91.82281 34749 ft 475 kts 179°
2026-05-04 08:28 41.73098 91.83432 34740 ft 474 kts 179°
2026-05-04 08:29 41.66616 91.85391 34737 ft 490 kts 164°
2026-05-04 08:29 41.63550 91.87526 34740 ft 501 kts 153°
2026-05-04 08:31 41.48794 92.14546 34731 ft 521 kts 127°
2026-05-04 08:33 41.32965 92.47104 34733 ft 525 kts 127°
2026-05-04 08:35 41.17015 92.79579 34724 ft 527 kts 126°
2026-05-04 08:35 41.12993 92.87711 34721 ft 527 kts 127°
2026-05-04 08:37 41.00901 93.12017 33228 ft 527 kts 126°
2026-05-04 08:37 40.98878 93.16056 32255 ft 526 kts 126°
2026-05-04 08:37 40.96860 93.20079 31316 ft 524 kts 126°
2026-05-04 08:38 40.94851 93.24093 30387 ft 522 kts 125°
2026-05-04 08:38 40.92853 93.28089 29411 ft 517 kts 125°
2026-05-04 08:38 40.90888 93.32026 28448 ft 508 kts 125°
2026-05-04 08:40 40.78007 93.57601 22070 ft 450 kts 126°
2026-05-04 08:40 40.76301 93.60964 21309 ft 443 kts 125°
2026-05-04 08:40 40.74630 93.64400 20923 ft 439 kts 123°
2026-05-04 08:41 40.73034 93.67755 20669 ft 437 kts 123°
2026-05-04 08:41 40.71421 93.71138 20313 ft 434 kts 123°
2026-05-04 08:41 40.69824 93.74487 19749 ft 429 kts 123°
2026-05-04 08:41 40.68237 93.77802 19213 ft 425 kts 123°
2026-05-04 08:42 40.66669 93.81078 18644 ft 421 kts 123°
2026-05-04 08:42 40.65113 93.84329 18054 ft 417 kts 123°
2026-05-04 08:42 40.63574 93.87541 17325 ft 413 kts 123°
2026-05-04 08:42 40.62050 93.90714 16623 ft 407 kts 123°
2026-05-04 08:43 40.60548 93.93846 16048 ft 403 kts 123°
2026-05-04 08:43 40.59057 93.96948 15518 ft 400 kts 123°
2026-05-04 08:43 40.57577 94.00021 14987 ft 396 kts 123°
2026-05-04 08:43 40.56109 94.03067 14424 ft 392 kts 123°
2026-05-04 08:44 40.54656 94.06081 13954 ft 390 kts 123°
2026-05-04 08:44 40.53215 94.09068 13525 ft 385 kts 123°
2026-05-04 08:46 40.43540 94.28601 10412 ft 321 kts 129°
2026-05-04 08:46 40.42127 94.30796 10070 ft 309 kts 130°
2026-05-04 08:46 40.40744 94.32913 9836 ft 304 kts 130°
2026-05-04 08:46 40.39371 94.35018 9713 ft 303 kts 130°
2026-05-04 08:47 40.37994 94.37138 9522 ft 306 kts 130°
2026-05-04 08:47 40.36616 94.39262 9188 ft 305 kts 130°
2026-05-04 08:47 40.35263 94.41347 8803 ft 303 kts 130°
2026-05-04 08:47 40.33906 94.43442 8412 ft 300 kts 130°
2026-05-04 08:48 40.32559 94.45518 8037 ft 298 kts 130°
2026-05-04 08:48 40.31229 94.47568 7640 ft 292 kts 130°
2026-05-04 08:48 40.29939 94.49555 7316 ft 281 kts 130°
2026-05-04 08:48 40.28697 94.51466 7052 ft 270 kts 130°
2026-05-04 08:49 40.27503 94.53302 6821 ft 260 kts 130°
2026-05-04 08:50 40.19383 94.57814 5576 ft 207 kts 175°
2026-05-04 08:50 40.17951 94.57992 5563 ft 207 kts 176°
2026-05-04 08:51 40.16526 94.58175 5589 ft 209 kts 174°
2026-05-04 08:51 40.15106 94.58719 5563 ft 214 kts 145°
2026-05-04 08:51 40.14258 94.60235 5552 ft 209 kts 102°
2026-05-04 08:51 40.14311 94.62066 5584 ft 194 kts 73°
2026-05-04 08:52 40.14638 94.63672 5595 ft 172 kts 73°
2026-05-04 08:52 40.14863 94.65096 5571 ft 155 kts 76°
2026-05-04 08:52 40.15017 94.66493 5462 ft 156 kts 78°
2026-05-04 08:52 40.15139 94.67891 5262 ft 153 kts 78°
2026-05-04 08:53 40.15251 94.69295 5070 ft 157 kts 79°
2026-05-04 08:54 40.16020 94.78990 3764 ft 152 kts 82°
2026-05-04 08:55 40.16122 94.80330 3692 ft 137 kts 83°
2026-05-04 08:55 40.16207 94.81311 3687 ft 79 kts 88°
2026-05-04 08:55 40.16241 94.81767 3684 ft 31 kts 85°
2026-05-04 08:55 40.16263 94.82059 3685 ft 33 kts 85°
2026-05-04 08:57 40.16253 94.81973 3687 ft 19 kts 264°
2026-05-04 09:01 40.16367 94.80661 3689 ft 8 kts 355°
2026-05-04 09:01 40.16421 94.80632 3689 ft 11 kts 287°
2026-05-04 09:01 40.16418 94.80525 3690 ft 13 kts 263°
2026-05-04 09:01 40.16414 94.80480 3690 ft 5 kts 263°
2026-05-04 09:02 40.16430 94.80443 3690 ft 2 kts 340°
2026-05-04 09:02 40.16454 94.80436 3690 ft 4 kts 357°
2026-05-04 09:02 40.16458 94.80436 3690 ft 0 kts 356°